Saginaw Browne, MI

3:31 PM EST on December 17, 2017 (GMT -0500)
Saginaw County-Browne

Weather History for KHYX - October, 2012

Change the Weather History Date:

Saturday, October 6, 2012

  Actual Average (KMBS) Record (KMBS)
Temperature  
Mean Temperature 44 °F -  
Max Temperature 51 °F 63 °F 89 °F (2007)
Min Temperature 37 °F 40 °F 27 °F (2003)
Degree Days  
Heating Degree Days 21    
Moisture  
Dew Point 34 °F    
Average Humidity 65    
Maximum Humidity 87    
Minimum Humidity 47    
Precipitation  
Precipitation 0.00 in - - ()
Sea Level Pressure  
Sea Level Pressure 29.98 in    
Wind  
Wind Speed 9 mph (West)    
Max Wind Speed 20 mph    
Max Gust Speed 26 mph    
Visibility 10 miles    
Events      
Averages and records for this station are not official NWS values.
T = Trace of Precipitation, MM = Missing Value Source: NWS Daily Summary

Daily Weather History Graph

Daily Weather History Graph

Search for Another Location

Airport or City:

Trip Planner

Search our weather history database for the weather conditions in past years. The results will help you decide how hot, cold, wet, or windy it might be!

Date:

Astronomy

Oct. 06, 2012 Rise Set
Actual Time 7:39 AM EDT 7:06 PM EDT
Civil Twilight 7:10 AM EDT 7:35 PM EDT
Nautical Twilight 6:37 AM EDT 8:08 PM EDT
Astronomical Twilight 6:04 AM EDT 8:41 PM EDT
Moon 11:13 PM EDT (10/6) 1:41 PM EDT (10/6)
Length of Visible Light 12h 24m
Length of Day
11h 27m
Waning Gibbous, 65% of the Moon is Illuminated
Oct 6
Waning Gibbous
Oct 8
Last Quarter
Oct 15
New
Oct 21
First Quarter
Oct 29
Full

Hourly Weather History & Observations

Time (EDT) Temp. Windchill Dew Point Humidity Pressure Visibility Wind Dir Wind Speed Gust Speed Precip Events Conditions
12:10 AM 48.2 °F - 39.2 °F 71% 29.92 in 10.0 mi WSW 8.1 mph - N/A   Overcast
12:30 AM 48.2 °F - 39.2 °F 71% 29.92 in 10.0 mi WSW 5.8 mph - N/A   Overcast
12:50 AM 48.2 °F - 39.2 °F 71% 29.91 in 10.0 mi WSW 5.8 mph - N/A   Mostly Cloudy
1:10 AM 46.4 °F 42.9 °F 37.4 °F 71% 29.91 in 10.0 mi WSW 6.9 mph - N/A   Mostly Cloudy
1:30 AM 46.4 °F 43.5 °F 37.4 °F 71% 29.90 in 10.0 mi WSW 5.8 mph - N/A   Mostly Cloudy
1:50 AM 46.4 °F 42.9 °F 35.6 °F 66% 29.90 in 10.0 mi WSW 6.9 mph - N/A   Mostly Cloudy
2:10 AM 46.4 °F 42.9 °F 33.8 °F 62% 29.90 in 10.0 mi WSW 6.9 mph - N/A   Scattered Clouds
2:51 AM 44.6 °F 40.2 °F 33.8 °F 66% 29.90 in 10.0 mi West 8.1 mph - N/A   Clear
3:11 AM 44.6 °F 40.7 °F 33.8 °F 66% 29.90 in 10.0 mi West 6.9 mph - N/A   Clear
3:31 AM 44.6 °F 41.4 °F 33.8 °F 66% 29.90 in 10.0 mi West 5.8 mph - N/A   Clear
3:51 AM 44.6 °F 39.7 °F 33.8 °F 66% 29.90 in 10.0 mi WSW 9.2 mph - N/A   Mostly Cloudy
4:11 AM 44.6 °F 40.7 °F 33.8 °F 66% 29.90 in 10.0 mi West 6.9 mph - N/A   Mostly Cloudy
4:31 AM 44.6 °F 41.4 °F 33.8 °F 66% 29.89 in 10.0 mi West 5.8 mph - N/A   Overcast
4:51 AM 42.8 °F 41.1 °F 33.8 °F 70% 29.90 in 10.0 mi WSW 3.5 mph - N/A   Mostly Cloudy
5:32 AM 39.2 °F 35.0 °F 33.8 °F 81% 29.90 in 10.0 mi SW 5.8 mph - N/A   Clear
5:52 AM 39.2 °F 35.9 °F 33.8 °F 81% 29.91 in 10.0 mi WSW 4.6 mph - N/A   Clear
6:12 AM 39.2 °F 35.9 °F 33.8 °F 81% 29.91 in 10.0 mi WSW 4.6 mph - N/A   Mostly Cloudy
6:32 AM 41.0 °F 37.1 °F 33.8 °F 76% 29.91 in 10.0 mi WSW 5.8 mph - N/A   Overcast
6:52 AM 41.0 °F 37.1 °F 33.8 °F 76% 29.92 in 10.0 mi WSW 5.8 mph - N/A   Overcast
7:12 AM 41.0 °F 35.8 °F 32.0 °F 70% 29.92 in 10.0 mi West 8.1 mph - N/A   Overcast
7:32 AM 42.8 °F 38.6 °F 32.0 °F 66% 29.93 in 10.0 mi West 6.9 mph - N/A   Overcast
7:52 AM 42.8 °F 37.5 °F 32.0 °F 66% 29.93 in 10.0 mi West 9.2 mph - N/A   Overcast
8:12 AM 42.8 °F 37.5 °F 32.0 °F 66% 29.94 in 10.0 mi West 9.2 mph - N/A   Overcast
8:33 AM 44.6 °F 40.2 °F 30.2 °F 57% 29.94 in 10.0 mi West 8.1 mph 11.5 mph N/A   Overcast
8:53 AM 44.6 °F 38.8 °F 30.2 °F 57% 29.95 in 10.0 mi West 11.5 mph 17.3 mph N/A   Overcast
9:13 AM 44.6 °F 38.4 °F 30.2 °F 57% 29.95 in 10.0 mi West 12.7 mph 18.4 mph N/A   Overcast
9:33 AM 44.6 °F 38.4 °F 32.0 °F 61% 29.96 in 10.0 mi West 12.7 mph 20.7 mph N/A   Mostly Cloudy
9:53 AM 46.4 °F 40.1 °F 32.0 °F 57% 29.96 in 10.0 mi West 15.0 mph 24.2 mph N/A   Scattered Clouds
10:13 AM 46.4 °F 41.1 °F 32.0 °F 57% 29.96 in 10.0 mi WSW 11.5 mph 23.0 mph N/A   Mostly Cloudy
10:33 AM 46.4 °F 39.0 °F 32.0 °F 57% 29.97 in 10.0 mi West 19.6 mph 23.0 mph N/A   Mostly Cloudy
10:53 AM 46.4 °F 40.4 °F 32.0 °F 57% 29.97 in 10.0 mi WSW 13.8 mph 21.9 mph N/A   Mostly Cloudy
11:13 AM 50.0 °F - 32.0 °F 50% 29.97 in 10.0 mi West 16.1 mph 26.5 mph N/A   Mostly Cloudy
11:33 AM 46.4 °F 39.8 °F 32.0 °F 57% 29.97 in 10.0 mi West 16.1 mph 23.0 mph N/A   Overcast
11:54 AM 46.4 °F 40.4 °F 32.0 °F 57% 29.98 in 10.0 mi West 13.8 mph 23.0 mph N/A   Overcast
12:14 PM 48.2 °F - 32.0 °F 54% 29.98 in 10.0 mi WSW 15.0 mph 20.7 mph N/A   Overcast
12:34 PM 46.4 °F 41.1 °F 33.8 °F 62% 29.98 in 10.0 mi West 11.5 mph 20.7 mph N/A   Overcast
12:54 PM 50.0 °F - 33.8 °F 54% 29.98 in 10.0 mi West 15.0 mph 19.6 mph N/A   Overcast
1:14 PM 48.2 °F - 33.8 °F 58% 29.99 in 10.0 mi WSW 13.8 mph 21.9 mph N/A   Mostly Cloudy
1:34 PM 51.8 °F - 33.8 °F 50% 29.98 in 10.0 mi West 13.8 mph 20.7 mph N/A   Scattered Clouds
1:54 PM 50.0 °F - 33.8 °F 54% 29.98 in 10.0 mi WSW 10.4 mph 17.3 mph N/A   Mostly Cloudy
2:14 PM 50.0 °F - 33.8 °F 54% 29.98 in 10.0 mi West 16.1 mph 20.7 mph N/A   Overcast
2:29 PM 50.0 °F - 32.0 °F 50% 29.98 in 10.0 mi West 16.1 mph 21.9 mph N/A   Overcast
2:49 PM 50.0 °F - 33.8 °F 54% 29.98 in 10.0 mi West 13.8 mph 19.6 mph N/A   Mostly Cloudy
3:10 PM 50.0 °F - 33.8 °F 54% 29.99 in 10.0 mi West 17.3 mph 20.7 mph N/A   Mostly Cloudy
3:30 PM 51.8 °F - 32.0 °F 47% 30.00 in 10.0 mi West 11.5 mph 21.9 mph N/A   Mostly Cloudy
3:50 PM 50.0 °F - 33.8 °F 54% 30.00 in 10.0 mi West 11.5 mph 17.3 mph N/A   Overcast
4:10 PM 50.0 °F - 32.0 °F 50% 30.00 in 10.0 mi WSW 15.0 mph 21.9 mph N/A   Overcast
4:30 PM 50.0 °F - 32.0 °F 50% 30.00 in 10.0 mi West 11.5 mph - N/A   Overcast
4:50 PM 50.0 °F - 32.0 °F 50% 30.00 in 10.0 mi WNW 12.7 mph 20.7 mph N/A   Overcast
5:10 PM 46.4 °F 41.9 °F 35.6 °F 66% 30.01 in 10.0 mi NW 9.2 mph - N/A   Overcast
5:30 PM 48.2 °F - 35.6 °F 62% 30.01 in 10.0 mi West 10.4 mph - N/A   Mostly Cloudy
5:50 PM 48.2 °F - 33.8 °F 58% 30.02 in 10.0 mi West 6.9 mph - N/A   Overcast
6:10 PM 48.2 °F - 33.8 °F 58% 30.02 in 10.0 mi West 8.1 mph - N/A   Overcast
6:31 PM 46.4 °F 42.4 °F 33.8 °F 62% 30.03 in 10.0 mi West 8.1 mph - N/A   Overcast
6:51 PM 46.4 °F 40.4 °F 32.0 °F 57% 30.04 in 10.0 mi WNW 13.8 mph - N/A   Overcast
7:11 PM 46.4 °F 41.1 °F 33.8 °F 62% 30.05 in 10.0 mi West 11.5 mph 16.1 mph N/A   Mostly Cloudy
7:31 PM 44.6 °F 39.7 °F 32.0 °F 61% 30.06 in 10.0 mi WNW 9.2 mph - N/A   Scattered Clouds
7:51 PM 42.8 °F 39.3 °F 32.0 °F 66% 30.06 in 10.0 mi West 5.8 mph - N/A   Clear
8:11 PM 42.8 °F 38.0 °F 33.8 °F 70% 30.07 in 10.0 mi West 8.1 mph - N/A   Scattered Clouds
8:31 PM 42.8 °F 38.0 °F 33.8 °F 70% 30.07 in 10.0 mi WNW 8.1 mph - N/A   Scattered Clouds
8:51 PM 42.8 °F 38.6 °F 33.8 °F 70% 30.08 in 10.0 mi WNW 6.9 mph - N/A   Scattered Clouds
9:11 PM 41.0 °F 37.1 °F 33.8 °F 76% 30.09 in 10.0 mi WNW 5.8 mph - N/A   Scattered Clouds
9:31 PM 41.0 °F 36.4 °F 35.6 °F 81% 30.09 in 10.0 mi WNW 6.9 mph - N/A   Clear
9:52 PM 39.2 °F 35.9 °F 33.8 °F 81% 30.09 in 10.0 mi WNW 4.6 mph - N/A   Clear
10:12 PM 39.2 °F 34.2 °F 33.8 °F 81% 30.09 in 10.0 mi WNW 6.9 mph - N/A   Clear
10:32 PM 41.0 °F 35.8 °F 33.8 °F 76% 30.09 in 10.0 mi NW 8.1 mph - N/A   Clear
10:52 PM 37.4 °F 32.1 °F 33.8 °F 87% 30.10 in 10.0 mi NW 6.9 mph - N/A   Scattered Clouds
11:12 PM 37.4 °F 32.1 °F 33.8 °F 87% 30.10 in 10.0 mi WNW 6.9 mph - N/A   Scattered Clouds
11:32 PM 37.4 °F - 33.8 °F 87% 30.11 in 10.0 mi Calm Calm - N/A   Clear
11:52 PM 37.4 °F 34.9 °F 33.8 °F 87% 30.11 in 10.0 mi WNW 3.5 mph - N/A   Scattered Clouds